Location: Heiligenberg
(48.5381°N, 7.3897°E)
Time: 21:00:58
(UTC+00:00)

Cosmos 407 Rocket - Pass Details

Date: 26 May 2022
Orbit: 743 x 786 km, 74.0° (Epoch: 03 July)

Event Time Altitude Azimuth Distance (km) Brightness Sun altitude
Rises 02:44:26 0° 335° (NNW) 3,284 7.0 -7.7°
Reaches altitude 10° 02:46:51 10° 333° (NNW) 2,347 6.3 -7.4°
Maximum altitude 02:52:10 71° 251° (WSW) 822 3.5 -6.7°
Drops below altitude 10° 02:57:23 10° 168° (SSE) 2,307 5.7 -6.1°
Sets 02:59:44 0° 166° (SSE) 3,222 6.5 -5.8°
